Tracking 25963 objects as of 12-Aug-2022
HD Live streaming from Space Station
objects crossing your sky now

PALAPA B4

Track PALAPA B4 now!
PALAPA B4 is classified as:


NORAD ID: 21964
Int'l Code: 1992-027A
Perigee: 35,865.1 km
Apogee: 35,913.0 km
Inclination: 11.8 °
Period: 1,441.0 minutes
Semi major axis: 42260 km
RCS: 12.5892 m2 (large)
Launch date: May 14, 1992
Source: Indonesia (INDO)
Launch site: AIR FORCE EASTERN TEST RANGE (AFETR)

Palapa B-4 was an Indonesian communications spacecraft launched by a Delta rocket.
aabbcc
Your satellite tracking list
Your tracking list is empty




NASA's NSSDC Master Catalog

Two Line Element Set (TLE):
1 21964U 92027A   22223.44920321 -.00000198  00000-0  00000-0 0  9997
2 21964  11.8353  26.7792 0005670  51.3716 318.9004  0.99932814 33140
Source of the keplerian elements: AFSPC